Regional Weather Roundup
Issued by NWS Kansas City/Pleasant Hill, MO

Home | Current Version | Previous Version | Graphics & Text | Print | Product List | Glossary Off
Versions: 1 2 3 4 5 6 7 8 9 10 11 12 13 14 15 16 17 18 19 20 21 22 23 24 25 26 27

000
ASUS43 KEAX 041110
RWREAX

WEATHER ROUNDUP FOR EASTERN KANSAS AND NORTHWEST MISSOURI
NATIONAL WEATHER SERVICE KANSAS CITY/PLEASANT HILL MO
500 AM CST SUN DEC 04 2016

KSZ040-057-103>105-MOZ028-029-037-043-041200-
...KANSAS CITY METROPOLITAN AREA...

CITY           SKY/WX    TMP DP  RH WIND       PRES   REMARKS
K.C. INTL      LGT RAIN  39  36  89 S12       30.02S FOG     WCI  32
K.C. DOWNTOWN  LGT RAIN  40  39  97 S3        30.03S FOG
LEES SUMMIT    LGT RAIN  39  39 100 S6        30.02S WCI  35
OLATHE - IXD   LGT RAIN  38  38 100 S3        30.02F FOG
OLATHE - OJC   LGT RAIN  38  37  97 S5        30.02F FOG     WCI  34
LAWRENCE       LGT RAIN  40  39  97 S5        30.03F FOG

$$

MOZ001>008-011>017-020>025-030>033-038>040-044>046-053-054-041200-
...NORTHERN AND CENTRAL MISSOURI...

CITY           SKY/WX    TMP DP  RH WIND       PRES   REMARKS
ST. JOSEPH     LGT RAIN  40  39  97 S5        30.03F FOG
MOSBY          LGT RAIN  39  37  93 CALM      30.03S
WARRENSBURG    LGT RAIN  37  36  93 SE8       30.03F WCI  31
WHITEMAN AFB   DRIZZLE   37  37 100 S7        30.02F WCI  32
CLINTON        LGT RAIN  37  37 100 SE5       30.04F WCI  34
SEDALIA        LGT RAIN  38  36  92 E8        30.04F FOG     WCI  32
WARSAW         NOT AVBL
CHILLICOTHE      N/A     38  37  97 SE7       30.06F WCI  33
KIRKSVILLE     MIX PCPN  35  34  96 SE8       30.06F FOG     WCI  29

$$

MOZ041-047>049-056>058-063>065-088>090-097-041200-
...EASTERN AND SOUTHERN MISSOURI...

CITY           SKY/WX    TMP DP  RH WIND       PRES   REMARKS
ST. LOUIS INTL CLOUDY    39  33  79 E7        30.11F WCI  34
SPIRIT OF STL  CLOUDY    38  36  92 E5        30.10F WCI  34
COLUMBIA       LGT RAIN  37  36  96 E8        30.05F FOG     WCI  31
JEFFERSON CITY LGT RAIN  38  36  92 E7        30.06F FOG     WCI  33
ROLLA          LGT RAIN  36  35  96 E6        30.03F FOG     WCI  31
OSAGE BEACH    LGT RAIN  37  36  96 E5        30.04F FOG     WCI  33
SPRINGFIELD    CLOUDY    38  37  97 SE10      29.99F FOG     WCI  31
BRANSON        CLOUDY    37  37 100 SE9       30.00S FOG     WCI  31
JOPLIN         LGT RAIN  40  40 100 SE5       30.02S FOG
WEST PLAINS    CLOUDY    37  36  96 E6        30.02F FOG     WCI  32

$$

IAZ060-094-KSZ022-034>040-054-083-096-NEZ052-066-093-041200-
...KANSAS...SOUTHEAST NEBRASKA AND IOWA...

CITY           SKY/WX    TMP DP  RH WIND       PRES   REMARKS
TOPEKA         RAIN      40  38  93 CALM      30.03S FOG
MANHATTAN      LGT RAIN  40  38  93 CALM      30.02F
EMPORIA        LGT RAIN  38  38 100 NW5       30.01F FOG     WCI  34
CHANUTE        LGT RAIN  41  40  96 SW3       30.03R FOG
WICHITA        LGT RAIN  41  40  96 NW5       30.03S
OMAHA          CLOUDY    34  30  85 W6        30.00F WCI  29
LINCOLN        CLOUDY    33  32  96 SW3       30.01F
FALLS CITY     LGT RAIN  38  38 100 SW7       30.01F WCI  33
LAMONI         LGT RAIN  36  34  92 S9        30.01F WCI  29
DES MOINES     LGT SNOW  35  34  96 S13       30.02F FOG     WCI  26

$$





USA.gov is the U.S. government's official web portal to all federal, state and local government web resources and services.